Regional Weather Roundup
Issued by NWS

Home | Current Version | Previous Version | Text Only | Print | Product List | Glossary Off
Versions: 1 2 3 4 5 6 7 8 9 10 11 12 13 14 15 16 17 18 19 20 21 22 23 24 25 26 27 28 29 30 31 32 33 34 35 36 37 38 39 40 41 42 43 44 45 46 47 48 49 50

000
ASUS43 KDMX 260307
RWRIA

WEATHER ROUNDUP FOR IOWA
NATIONAL WEATHER SERVICE DES MOINES IA
1000 PM CDT FRI JUL 25 2014

NOTE: "FAIR" INDICATES FEW OR NO CLOUDS BELOW 12,000 FEET WITH NO
SIGNIFICANT WEATHER AND/OR OBSTRUCTIONS TO VISIBILITY.

* - THESE STATIONS ARE NOT NWS STATIONS...THUS NOT UNDER NWS
QUALITY CONTROL.  THEY ALSO DO NOT REPORT WEATHER SUCH
AS PRECIPITATION OR FOG.

IAZ001>003-012>014-020>022-031>034-043>046-260400-
   NORTHWEST IOWA

CITY           SKY/WX    TMP DP  RH WIND       PRES   REMARKS
CARROLL *      CLOUDY    73  70  88 CALM      29.80R
CHEROKEE *     CLOUDY    75  73  94 CALM      29.82R
DENISON *      CLOUDY    77  75  94 NE7       29.79R
LE MARS *      CLOUDY    79  73  83 SE6       29.81R HX  82
ORANGE CITY *  CLOUDY    79  72  78 CALM      29.83R HX  82
SHELDON *      CLOUDY    75  72  88 S5        29.82R
SIOUX CITY     MOCLDY    81  73  76 E7        29.80R HX  86
SPENCER        CLOUDY    75  70  84 S10       29.82R
STORM LAKE *   CLOUDY    72  72 100 CALM      29.83R
$$

IAZ055>058-069>071-079>083-090>094-260400-
   SOUTHWEST IOWA

CITY           SKY/WX    TMP DP  RH WIND       PRES   REMARKS
ATLANTIC *     CLEAR     77  72  83 VRB5      29.78R
AUDUBON *      CLEAR     75  72  88 CALM      29.81R
CLARINDA *     CLEAR     79  75  89 CALM      29.76R HX  82
COUNCIL BLFS *   N/A     79  77  94 NE7       29.77R HX  83
CRESTON *      CLEAR     72  72 100 E8        29.78R
HARLAN  *      CLEAR     77  73  88 SE5       29.82R
LAMONI         PTCLDY    75  71  87 SE8       29.77R
RED OAK *      CLEAR     79  73  83 NE5       29.76R HX  82
SHENANDOAH *   CLEAR     81  79  94 E6        29.75R HX  89
$$

IAZ047>049-059>061-072>074-084-260400-
   CENTRAL IOWA

CITY           SKY/WX    TMP DP  RH WIND       PRES   REMARKS
AMES           CLOUDY    74  70  87 E5        29.80R
ANKENY *       CLOUDY    77  72  83 SE8       29.78R
CHARITON *     CLEAR     73  70  88 SE7       29.78S
DES MOINES     PTCLDY    78  72  81 E8        29.78R HX  80
GRINNELL*      MOCLDY    73  70  88 SE8       29.82R
KNOXVILLE *    CLEAR     73  70  88 SE8       29.78R
MARSHALLTOWN   CLOUDY    73  70  90 E6        29.80R
PELLA *        CLEAR     73  70  88 SE7       29.81R
PERRY *        MOCLDY    75  72  88 E5        29.80R
$$

IAZ004>006-015-016-023>025-035-036-260400-
   NORTH CENTRAL IOWA

CITY           SKY/WX    TMP DP  RH WIND       PRES   REMARKS
ALGONA *       CLOUDY    75  72  88 CALM      29.82R
CLARION *      CLOUDY    73  72  94 SE3       29.81R
ESTHERVILLE    PTCLDY    73  70  90 S8        29.80S
FORT DODGE *   CLOUDY    73  70  88 E3        29.82R
MASON CITY     CLOUDY    73  70  90 S6        29.83R
FOREST CITY *  CLOUDY    73  72  94 CALM      29.82R
IOWA FALLS *     N/A     70  68  94 SE3       29.83R
$$

IAZ007>011-017>019-026>030-037>042-050>054-066-260400-
   NORTHEAST IOWA

CITY           SKY/WX    TMP DP  RH WIND       PRES   REMARKS
CEDAR RAPIDS   CLOUDY    71  65  81 SE8       29.83R
CHARLES CITY * CLOUDY    73  70  88 SE7       29.83R
CLINTON *      CLOUDY    66  63  88 SE10      29.91S
DECORAH *      CLOUDY    68  66  94 SE8       29.84R
DUBUQUE        CLOUDY    65  62  90 SE14G22   29.88S
MONTICELLO *   CLOUDY    68  64  88 SE9G15    29.86R
OELWEIN *      CLOUDY    70  66  88 SE10      29.85R
WATERLOO       CLOUDY    73  67  81 SE10      29.81R
$$

IAZ064-065-067-068-078-260400-
   EAST CENTRAL IOWA

CITY           SKY/WX    TMP DP  RH WIND       PRES   REMARKS
DAVENPORT      CLOUDY    69  63  81 SE13      29.88S
IOWA CITY      CLOUDY    71  66  84 SE9       29.85R
MT. PLEASANT * MOCLDY    72  63  73 SE8       29.84S
MUSCATINE *    CLOUDY    72  64  78 SE9G15    29.85S
QUAD CITIES    CLOUDY    69  64  84 SE9       29.87S
$$

IAZ062-063-075>077-085>089-095>099-260400-
   SOUTHEAST IOWA

CITY           SKY/WX    TMP DP  RH WIND       PRES   REMARKS
BURLINGTON     CLOUDY    72  63  73 SE9       29.85S
FAIRFIELD *    MOCLDY    72  68  88 SE8       29.82S
FORT MADISON * CLOUDY    73  64  73 SE10      29.85S
KEOKUK *       MOCLDY    73  64  73 SE10      29.84S
OSKALOOSA *    MOCLDY    72  70  94 E6        29.81S
CENTERVILLE *  CLEAR     72  70  94 SE7       29.81F
OTTUMWA        MOCLDY    73  68  84 SE8       29.80S
WASHINGTON *   MOCLDY    72  68  88 SE9       29.83S
$$

ABBREVIATIONS USED IN REMARKS
   TC - TEMPERATURES IN CELSIUS
  WCI - WIND CHILL INDEX
   HX - HEAT INDEX
  VSB - VISIBILITY
$$




USA.gov is the U.S. government's official web portal to all federal, state and local government web resources and services.